User: anonymous   Login
Location: Unspecified
(0.0000°N, 0.0000°E)
Time: 20:25:11
(UTC+01:00)
Language:

CZ-4B R/B - Orbit

View from above orbital plane
View from above orbital plane
View from above satellite
View from above satellite

Ground track
Ground track

The orbit data is extracted from the following two-line orbital elements,

1 33410U 08053C   14353.85915442  .00007845  00000-0  61324-3 0   153
2 33410 097.6076 325.2866 0127741 005.5828 354.6782 14.95052666334571
Epoch (UTC): 19 December 2014 20:37:10
Eccentricity: 0.0127741
inclination: 97.6076°
perigee height: 493 km
apogee height: 671 km
right ascension of ascending node: 325.2866°
argument of perigee: 5.5828°
revolutions per day: 14.95052666
mean anomaly at epoch: 354.6782°
orbit number at epoch: 33457

The dashed part of the orbit path shows where the satellite is in the earth's shadow,  

DLR